Date String (YYYY-MM-DD hh:mm:ss) UTC,Instrument flags,Ambient pressure (hPa),Sample flow (lpm),Bypass flow (lpm),Sample temperature (°C),Ambient temperature (°C),ASC tube jacket temperature (°C),LED temperature (°C),Box temperature (°C),Sample RH (%),Span deviation,Mass concentration (μg/m³),Mass concentration (μg/m³),Mass concentration (μg/m³)
DateTimeUTC,F1_M11,P_M11,Q1_M11,Q2_M11,T1_M11,T2_M11,T3_M11,T4_M11,T5_M11,U1_M11,ZSPAN_M11,X0_M11,X2_M11,X1_M11
2021-11-23 05:00:00,,0826.4,4.99,0.00,27.8,26.8,00.0,36.9,29.5,05.8,0000.0,0004.55,0001.26,0000.88
2021-11-23 05:01:00,,0826.3,5.00,0.00,27.8,26.7,00.0,36.9,29.5,05.7,0000.0,0004.51,0001.26,0000.88
2021-11-23 05:02:00,,0826.3,5.01,0.00,27.8,26.8,00.0,36.9,29.5,05.6,0000.0,0004.53,0001.24,0000.88
2021-11-23 05:03:00,,0826.2,5.01,0.00,27.8,26.8,00.0,36.9,29.4,05.6,0000.0,0004.50,0001.22,0000.86
2021-11-23 05:04:00,,0826.2,5.01,0.00,27.8,26.8,00.0,36.9,29.5,05.6,0000.0,0004.35,0001.21,0000.84
2021-11-23 05:05:00,,0826.4,5.00,0.00,27.8,26.8,00.0,36.9,29.5,05.6,0000.0,0003.21,0001.17,0000.82
2021-11-23 05:06:00,,0826.2,4.99,0.00,27.8,26.8,00.0,36.9,29.4,05.6,0000.0,0002.22,0001.10,0000.79
2021-11-23 05:07:00,,0826.2,5.00,0.00,27.8,26.8,00.0,36.9,29.4,05.7,0000.0,0001.80,0001.04,0000.76
2021-11-23 05:08:00,,0826.3,5.00,0.00,27.8,26.8,00.0,36.8,29.4,05.6,0000.0,0001.82,0001.03,0000.74
2021-11-23 05:09:00,,0826.2,5.00,0.00,27.7,26.8,00.0,36.8,29.4,05.7,0000.0,0001.76,0001.00,0000.73
2021-11-23 05:10:00,,0826.2,4.99,0.00,27.7,26.8,00.0,36.8,29.4,05.7,0000.0,0001.73,0000.97,0000.71
2021-11-23 05:11:00,,0826.2,5.01,0.00,27.7,26.8,00.0,36.8,29.4,05.8,0000.0,0001.71,0000.96,0000.69
2021-11-23 05:12:00,,0826.2,5.00,0.00,27.7,26.8,00.0,36.8,29.4,05.8,0000.0,0001.70,0000.95,0000.69
2021-11-23 05:13:00,,0826.2,4.99,0.00,27.7,26.8,00.0,36.8,29.4,05.7,0000.0,0001.62,0000.96,0000.69
2021-11-23 05:14:00,,0826.2,5.00,0.00,27.7,26.8,00.0,36.8,29.4,05.7,0000.0,0002.49,0000.99,0000.71
2021-11-23 05:15:00,,0826.1,5.01,0.00,27.7,26.8,00.0,36.8,29.5,05.7,0000.0,0003.30,0000.98,0000.71
2021-11-23 05:16:00,,0826.2,5.00,0.00,27.7,26.8,00.0,36.8,29.4,05.6,0000.0,0003.31,0000.99,0000.72
2021-11-23 05:17:00,,0826.1,4.99,0.00,27.7,26.7,00.0,36.8,29.4,05.6,0000.0,0003.33,0001.01,0000.72
2021-11-23 05:18:00,,0826.2,5.00,0.00,27.7,26.7,00.0,36.8,29.4,05.6,0000.0,0003.28,0001.00,0000.72
2021-11-23 05:19:00,,0826.1,4.99,0.00,27.7,26.7,00.0,36.8,29.4,05.6,0000.0,0003.17,0000.97,0000.72
2021-11-23 05:20:00,,0826.2,5.01,0.00,27.7,26.7,00.0,36.8,29.4,05.6,0000.0,0003.17,0000.96,0000.70
2021-11-23 05:21:00,,0826.2,5.00,0.00,27.7,26.6,00.0,36.8,29.4,05.7,0000.0,0003.22,0000.98,0000.70
2021-11-23 05:22:00,,0826.2,4.98,0.00,27.7,26.6,00.0,36.8,29.4,05.7,0000.0,0003.35,0001.03,0000.70
2021-11-23 05:23:00,,0826.2,5.01,0.00,27.7,26.6,00.0,36.8,29.4,05.7,0000.0,0003.38,0001.05,0000.69
2021-11-23 05:24:00,,0826.2,5.00,0.00,27.7,26.6,00.0,36.8,29.4,05.7,0000.0,0003.57,0001.10,0000.69
2021-11-23 05:25:00,,0826.2,5.00,0.00,27.7,26.6,00.0,36.8,29.4,05.6,0000.0,0003.07,0001.07,0000.69
2021-11-23 05:26:00,,0826.2,4.99,0.00,27.7,26.7,00.0,36.8,29.3,05.6,0000.0,0001.68,0001.03,0000.69
2021-11-23 05:27:00,,0826.1,5.00,0.00,27.7,26.6,00.0,36.8,29.4,05.6,0000.0,0001.61,0001.01,0000.68
2021-11-23 05:28:00,,0826.0,5.01,0.00,27.7,26.6,00.0,36.7,29.4,05.6,0000.0,0001.64,0001.01,0000.69
2021-11-23 05:29:00,,0826.0,5.00,0.00,27.6,26.7,00.0,36.7,29.4,05.6,0000.0,0002.24,0001.01,0000.69
2021-11-23 05:30:00,,0826.0,4.99,0.00,27.7,26.7,00.0,36.7,29.4,05.6,0000.0,0002.40,0001.02,0000.69
2021-11-23 05:31:00,,0826.0,4.99,0.00,27.6,26.7,00.0,36.7,29.3,05.6,0000.0,0002.40,0001.02,0000.70
2021-11-23 05:32:00,,0826.0,5.00,0.00,27.6,26.6,00.0,36.7,29.3,05.6,0000.0,0002.34,0000.99,0000.69
2021-11-23 05:33:00,,0825.9,5.00,0.00,27.6,26.6,00.0,36.7,29.3,05.6,0000.0,0002.15,0000.91,0000.68
2021-11-23 05:34:00,,0826.0,4.99,0.00,27.6,26.6,00.0,36.7,29.3,05.6,0000.0,0002.25,0000.90,0000.67
2021-11-23 05:35:00,,0825.9,5.00,0.00,27.6,26.6,00.0,36.7,29.3,05.7,0000.0,0002.15,0000.86,0000.66
2021-11-23 05:36:00,,0826.0,5.01,0.00,27.6,26.6,00.0,36.7,29.2,05.7,0000.0,0002.22,0000.88,0000.65
2021-11-23 05:37:00,,0826.0,4.99,0.00,27.6,26.5,00.0,36.7,29.3,05.7,0000.0,0002.70,0000.91,0000.65
2021-11-23 05:38:00,,0825.9,5.00,0.00,27.6,26.5,00.0,36.7,29.3,05.7,0000.0,0002.76,0000.93,0000.65
2021-11-23 05:39:00,,0826.0,5.00,0.00,27.6,26.5,00.0,36.7,29.2,05.7,0000.0,0002.73,0000.91,0000.63
2021-11-23 05:40:00,,0826.0,4.99,0.00,27.6,26.5,00.0,36.7,29.2,05.6,0000.0,0002.31,0000.94,0000.64
2021-11-23 05:41:00,,0825.9,5.01,0.00,27.6,26.5,00.0,36.7,29.2,05.6,0000.0,0002.18,0000.93,0000.63
2021-11-23 05:42:00,,0826.0,5.00,0.00,27.6,26.5,00.0,36.7,29.2,05.6,0000.0,0002.19,0000.93,0000.62
2021-11-23 05:43:00,,0825.9,5.01,0.00,27.5,26.5,00.0,36.7,29.2,05.6,0000.0,0002.19,0000.93,0000.62
2021-11-23 05:44:00,,0825.8,4.99,0.00,27.5,26.5,00.0,36.6,29.2,05.6,0000.0,0002.30,0000.95,0000.62
2021-11-23 05:45:00,,0825.8,5.00,0.00,27.5,26.4,00.0,36.6,29.2,05.6,0000.0,0002.15,0000.92,0000.63
2021-11-23 05:46:00,,0826.0,5.00,0.00,27.5,26.4,00.0,36.6,29.2,05.6,0000.0,0001.99,0000.88,0000.62
2021-11-23 05:47:00,,0826.0,5.00,0.00,27.5,26.4,00.0,36.6,29.2,05.6,0000.0,0001.88,0000.85,0000.61
2021-11-23 05:48:00,,0826.3,4.99,0.00,27.5,26.4,00.0,36.6,29.2,05.5,0000.0,0001.54,0000.86,0000.61
2021-11-23 05:49:00,,0825.7,5.01,0.00,27.5,26.4,00.0,36.6,29.2,05.6,0000.0,0001.58,0000.85,0000.61
2021-11-23 05:50:00,,0825.7,4.99,0.00,27.5,26.5,00.0,36.6,29.2,05.6,0000.0,0001.61,0000.84,0000.61
2021-11-23 05:51:00,,0825.7,5.00,0.00,27.5,26.5,00.0,36.6,29.2,05.6,0000.0,0001.43,0000.81,0000.61
2021-11-23 05:52:00,,0825.7,5.01,0.00,27.5,26.5,00.0,36.6,29.2,05.6,0000.0,0001.40,0000.81,0000.61
2021-11-23 05:53:00,,0825.7,5.00,0.00,27.5,26.5,00.0,36.6,29.2,05.6,0000.0,0001.35,0000.79,0000.62
2021-11-23 05:54:00,,0825.8,4.99,0.00,27.5,26.5,00.0,36.6,29.2,05.6,0000.0,0001.34,0000.80,0000.62
2021-11-23 05:55:00,,0825.8,5.00,0.00,27.5,26.5,00.0,36.6,29.2,05.6,0000.0,0001.22,0000.79,0000.62
2021-11-23 05:56:00,,0826.0,5.00,0.00,27.5,26.4,00.0,36.6,29.1,05.6,0000.0,0001.25,0000.79,0000.60
2021-11-23 05:57:00,,0825.7,4.99,0.00,27.5,26.4,00.0,36.6,29.2,05.6,0000.0,0001.60,0000.82,0000.60
2021-11-23 05:58:00,,0825.7,5.00,0.00,27.5,26.4,00.0,36.6,29.2,05.6,0000.0,0001.72,0000.82,0000.60
2021-11-23 05:59:00,,0825.6,5.01,0.00,27.5,26.4,00.0,36.5,29.2,05.6,0000.0,0001.69,0000.80,0000.60
